Weather History for Mount Carmel, IL

Change the Weather History Date:

Monday, December 31, 2012

  Actual Average (KLWV) Record (KLWV)
Temperature  
Mean Temperature 32 °F 31 °F  
Max Temperature 37 °F 39 °F 63 °F (2006)
Min Temperature 26 °F 24 °F 3 °F (1998)
Degree Days  
Heating Degree Days 34 34  
Month to date heating degree days 941  
Since 1 July heating degree days 1799  
Cooling Degree Days 0 0  
Month to date cooling degree days 0  
Year to date cooling degree days 1387  
Moisture  
Dew Point 32 °F    
Average Humidity 91    
Maximum Humidity 100    
Minimum Humidity 81    
Precipitation  
Precipitation 0.04 in 0.10 in 0.92 in (1968)
Month to date precipitation 3.39  
Year to date precipitation 43.88  
Sea Level Pressure  
Sea Level Pressure 30.17 in    
Wind  
Wind Speed 5 mph (SW)    
Max Wind Speed 15 mph    
Max Gust Speed -    
Visibility 6 miles    
Events Rain , Snow    
T = Trace of Precipitation, MM = Missing Value Source: NWS Daily Summary

Daily Weather History Graph

Daily Weather History Graph

Search for Another Location

Airport:

Trip Planner

Search our weather history database for the weather conditions in past years. The results will help you decide how hot, cold, wet, or windy it might be!

Date:

Astronomy

Dec. 31, 2012 Rise Set
Actual Time 7:08 AM CST 4:39 PM CST
Civil Twilight 6:38 AM CST 5:09 PM CST
Nautical Twilight 6:05 AM CST 5:42 PM CST
Astronomical Twilight 5:33 AM CST 6:15 PM CST
Moon 8:07 PM CST (12/31) 8:52 AM CST (12/31)
Length of Visible Light 10h 30m
Length of Day
9h 31m
Waning Gibbous, 90% of the Moon is Illuminated
Dec 31
Waning Gibbous
Jan 4
Last Quarter
Jan 11
New
Jan 18
First Quarter
Jan 26
Full

Hourly Weather History & Observations

Time (CST) Temp. Windchill Dew Point Humidity Pressure Visibility Wind Dir Wind Speed Gust Speed Precip Events Conditions
12:15 AM 26.6 °F - 24.8 °F 93% 30.28 in 7.0 mi Calm Calm - N/A   Clear
12:55 AM 30.2 °F - 28.4 °F 93% 30.27 in 10.0 mi Calm Calm - N/A   Clear
1:15 AM 32.0 °F - 28.4 °F 87% 30.26 in 10.0 mi Calm Calm - N/A   Clear
1:35 AM 32.0 °F - 28.4 °F 87% 30.26 in 10.0 mi Calm Calm - N/A   Clear
2:15 AM 32.0 °F - 28.4 °F 87% 30.26 in 10.0 mi Calm Calm - N/A   Clear
2:35 AM 32.0 °F 24.2 °F 28.4 °F 87% 30.27 in 10.0 mi SSW 9.2 mph - N/A   Clear
2:55 AM 32.0 °F - 28.4 °F 87% 30.27 in 10.0 mi Calm Calm - N/A   Clear
3:15 AM 32.0 °F - 28.4 °F 87% 30.26 in 10.0 mi Calm Calm - N/A   Mostly Cloudy
3:35 AM 32.0 °F - 28.4 °F 87% 30.26 in 10.0 mi Calm Calm - N/A   Scattered Clouds
3:55 AM 32.0 °F - 28.4 °F 87% 30.26 in 10.0 mi Calm Calm - N/A   Scattered Clouds
4:15 AM 32.0 °F - 28.4 °F 87% 30.26 in 10.0 mi Calm Calm - N/A   Mostly Cloudy
4:35 AM 33.8 °F - 28.4 °F 81% 30.25 in 10.0 mi Calm Calm - N/A   Mostly Cloudy
4:55 AM 33.8 °F - 28.4 °F 81% 30.25 in 10.0 mi Calm Calm - N/A   Mostly Cloudy
5:15 AM 33.8 °F 24.8 °F 28.4 °F 81% 30.24 in 10.0 mi SW 12.7 mph - N/A   Overcast
5:35 AM 33.8 °F 24.8 °F 28.4 °F 81% 30.23 in 10.0 mi SSW 12.7 mph - N/A   Overcast
5:55 AM 33.8 °F 23.9 °F 28.4 °F 81% 30.23 in 10.0 mi SW 15.0 mph - N/A   Overcast
6:15 AM 33.8 °F 23.9 °F 30.2 °F 87% 30.23 in 10.0 mi SW 15.0 mph - N/A   Overcast
6:35 AM 33.8 °F 25.3 °F 30.2 °F 87% 30.22 in 10.0 mi SSW 11.5 mph - N/A   Overcast
6:55 AM 33.8 °F 24.3 °F 30.2 °F 87% 30.21 in 10.0 mi SSW 13.8 mph - N/A   Overcast
7:15 AM 33.8 °F 25.3 °F 30.2 °F 87% 30.22 in 10.0 mi SSW 11.5 mph - N/A   Overcast
7:35 AM 33.8 °F 25.3 °F 30.2 °F 87% 30.22 in 10.0 mi SW 11.5 mph - N/A   Overcast
7:55 AM 33.8 °F 24.8 °F 30.2 °F 87% 30.22 in 10.0 mi SSW 12.7 mph - N/A   Overcast
8:15 AM 35.6 °F 27.1 °F 30.2 °F 81% 30.21 in 10.0 mi SW 12.7 mph - N/A   Overcast
8:35 AM 35.6 °F 27.5 °F 30.2 °F 81% 30.21 in 10.0 mi SW 11.5 mph - N/A   Overcast
8:55 AM 35.6 °F 26.6 °F 30.2 °F 81% 30.20 in 10.0 mi SSW 13.8 mph - N/A   Overcast
9:15 AM 35.6 °F 27.1 °F 30.2 °F 81% 30.20 in 10.0 mi SSW 12.7 mph - N/A   Light Drizzle
9:35 AM 35.6 °F 28.0 °F 32.0 °F 87% 30.19 in 5.0 mi South 10.4 mph - N/A Rain Light Rain
9:55 AM 35.6 °F 29.2 °F 32.0 °F 87% 30.20 in 10.0 mi SSW 8.1 mph - N/A Rain Light Rain
10:15 AM 35.6 °F 27.5 °F 32.0 °F 87% 30.20 in 7.0 mi SSW 11.5 mph - 0.01 in Rain Rain
10:35 AM 35.6 °F 29.2 °F 32.0 °F 87% 30.19 in 10.0 mi SSW 8.1 mph - 0.01 in   Overcast
10:55 AM 35.6 °F 28.6 °F 32.0 °F 87% 30.18 in 10.0 mi SSW 9.2 mph - 0.01 in   Overcast
11:15 AM 37.4 °F 28.5 °F 32.0 °F 81% 30.19 in 10.0 mi SSW 15.0 mph - N/A   Overcast
11:35 AM 35.6 °F 28.0 °F 32.0 °F 87% 30.18 in 10.0 mi South 10.4 mph - N/A   Overcast
11:55 AM 35.6 °F 27.5 °F 32.0 °F 87% 30.17 in 10.0 mi SW 11.5 mph - N/A   Overcast
12:15 PM 35.6 °F 27.5 °F 32.0 °F 87% 30.17 in 7.0 mi SSW 11.5 mph - N/A   Overcast
12:35 PM 35.6 °F 27.5 °F 32.0 °F 87% 30.16 in 3.0 mi SW 11.5 mph - N/A Snow Light Snow
12:55 PM 35.6 °F 29.9 °F 32.0 °F 87% 30.14 in 2.0 mi SSW 6.9 mph - N/A Snow Light Snow
1:35 PM 35.6 °F 28.6 °F 33.8 °F 93% 30.13 in 2.5 mi SW 9.2 mph - N/A Snow Light Snow
1:55 PM 35.6 °F 27.5 °F 33.8 °F 93% 30.14 in 4.0 mi SW 11.5 mph - N/A Rain Light Rain
2:15 PM 35.6 °F 29.2 °F 33.8 °F 93% 30.13 in 7.0 mi SW 8.1 mph - N/A   Overcast
2:35 PM 35.6 °F 29.9 °F 33.8 °F 93% 30.12 in 7.0 mi SW 6.9 mph - N/A   Overcast
2:55 PM 35.6 °F 30.7 °F 33.8 °F 93% 30.12 in 10.0 mi SW 5.8 mph - N/A   Overcast
3:15 PM 35.6 °F 29.2 °F 33.8 °F 93% 30.13 in 10.0 mi SW 8.1 mph - N/A   Overcast
3:35 PM 35.6 °F 29.9 °F 33.8 °F 93% 30.13 in 5.0 mi SW 6.9 mph - N/A Snow Light Snow
3:55 PM 35.6 °F 29.9 °F 33.8 °F 93% 30.12 in 5.0 mi SW 6.9 mph - N/A Rain Light Rain
4:15 PM 35.6 °F 30.7 °F 33.8 °F 93% 30.12 in 2.0 mi SW 5.8 mph - N/A Snow Light Snow
4:35 PM 33.8 °F 29.6 °F 32.0 °F 93% 30.12 in 2.5 mi SSW 4.6 mph - 0.01 in Snow Light Snow
4:55 PM 33.8 °F - 33.8 °F 100% 30.12 in 5.0 mi Calm Calm - 0.01 in Snow Light Snow
5:15 PM 33.8 °F - 33.8 °F 100% 30.13 in 5.0 mi Calm Calm - N/A   Overcast
5:35 PM 33.8 °F - 33.8 °F 100% 30.12 in 5.0 mi Calm Calm - N/A   Overcast
6:15 PM 33.8 °F - 33.8 °F 100% 30.12 in 4.0 mi Calm Calm - N/A Rain Light Rain
6:35 PM 33.8 °F - 33.8 °F 100% 30.12 in 3.0 mi Calm Calm - N/A Snow Light Snow
6:55 PM 33.8 °F - 33.8 °F 100% 30.11 in 2.0 mi Calm Calm - N/A Snow Light Snow
7:15 PM 33.8 °F - 33.8 °F 100% 30.12 in 2.0 mi Calm Calm - N/A Snow Light Snow
7:35 PM 33.8 °F - 33.8 °F 100% 30.11 in 1.2 mi Calm Calm - 0.01 in Snow Light Snow
7:55 PM 33.8 °F - 33.8 °F 100% 30.10 in 1.2 mi Calm Calm - 0.02 in Snow Light Snow
8:15 PM 33.8 °F - 33.8 °F 100% 30.10 in 1.8 mi Calm Calm - N/A Snow Light Snow
8:35 PM 33.8 °F - 33.8 °F 100% 30.10 in 1.2 mi Calm Calm - N/A Snow Light Snow
8:55 PM 33.8 °F - 33.8 °F 100% 30.09 in 1.2 mi Calm Calm - N/A Snow Light Snow
9:15 PM 33.8 °F - 33.8 °F 100% 30.10 in 1.0 mi Calm Calm - N/A Snow Light Snow
9:35 PM 33.8 °F - 33.8 °F 100% 30.09 in 1.5 mi Calm Calm - N/A Snow Light Snow
9:55 PM 33.8 °F - 33.8 °F 100% 30.09 in 1.8 mi Calm Calm - N/A Snow Light Snow
10:15 PM 33.8 °F - 33.8 °F 100% 30.09 in 1.2 mi Calm Calm - N/A Rain Rain
10:35 PM 33.8 °F - 33.8 °F 100% 30.07 in 1.0 mi Calm Calm - N/A   Light Drizzle
10:55 PM 33.8 °F - 33.8 °F 100% 30.07 in 1.0 mi Calm Calm - N/A   Overcast
11:15 PM 33.8 °F - 33.8 °F 100% 30.09 in 1.2 mi Calm Calm - N/A   Overcast
11:35 PM 33.8 °F - 33.8 °F 100% 30.09 in 1.0 mi Calm Calm - N/A Rain Light Rain
11:55 PM 33.8 °F - 33.8 °F 100% 30.09 in 0.8 mi Calm Calm - N/A Rain Light Rain